Tracking 29892 objects as of 21-Nov-2024
HD Live streaming from Space Station
objects crossing your sky now

DELTA 1 R/B(2)

Track DELTA 1 R/B(2) now!


NORAD ID: 8134
Int'l Code: 1975-077C
Perigee: 407.3 km
Apogee: 33,925.5 km
Inclination: 13.3 °
Period: 599.0 minutes
Semi major axis: 23537 km
RCS: 1.9416 m2 (large)
Launch date: August 27, 1975
Source: United States (US)
Launch site: AIR FORCE EASTERN TEST RANGE (AFETR)

Note: This is a ROCKET BODY
Your satellite tracking list
Your tracking list is empty




NASA's NSSDC Master Catalog

Two Line Element Set (TLE):
1  8134U 75077C   24325.82818745  .00000443  00000-0  17025-2 0  9999
2  8134  13.2574 267.6602 7120191  86.4546 345.3120  2.40417060267718
Source of the keplerian elements: AFSPC